Content
SEND FEEDBACK

Daily
Averages
Monthly
Summary
United States of America

MERIZO, GUAM


Home > North America > United States > Guam
Elevation: 10 feet     Latitude: 13 14N     Longitude: 144 39E

WEATHER
 
SELECT A DAY
Number of Records: 341,524;   Date Range: 1/1/95 - 7/7/14
 
SHARE

PRINT THIS DATA

[ ← Previous Day ]
WEATHER ALMANAC - DECEMBER 8, 2013
[ Next Day → ]
[ °C ]   °F
Weather ElementAverageHighLow
Temperature81.4 °F84.4 °F (12:58 pm)77.9 °F (5:58 am)
Dewpoint76.1 °F77 °F (8:23 am)73.8 °F (11:58 pm)
Humidity84.5 %94 % (4:58 am)76 % (1:58 pm)
Barometer29.86 in29.92 in (9:38 am)29.79 in (2:58 pm)
Wind Speed13.4 mph17.3 mph (10:58 am)
Weather ElementAverage
Visibility10 mi
Wind DirectionENE (67.5 °)

Weather ElementTotal
Precipitation---
Cooling Degree Days16.2 (Base 65)
Growing Degree Days31.2 (Base 50)
Averaged from 61 records on December 8, 2013
WEATHER CONDITIONS BREAKOUT
WIND DIRECTION BREAKOUT
WEATHER BY HOUR - DECEMBER 8, 2013
[ °C ]   °F
Local TimeTemperatureDewpointHumidityBarometerVisibilityWind DirectionWind SpeedGust SpeedPrecipitationEventsConditions
1:58 AM78.4 °F75.9 °F92 %29.84 in10.0 miENE (60°)11.5 mphPartly Cloudy
2:58 AM78.3 °F75.7 °F92 %29.83 in10.0 miENE (70°)10.4 mphPartly Cloudy
3:58 AM78.3 °F76.1 °F93 %29.83 in10.0 miENE (60°)11.5 mphScattered Clouds
4:58 AM78.1 °F76.1 °F94 %29.83 in10.0 miENE (70°)11.5 mphScattered Clouds
5:58 AM77.9 °F75.4 °F92 %29.84 in10.0 miENE (60°)10.4 mphPartly Cloudy
6:58 AM78.6 °F76.1 °F92 %29.86 in10.0 miENE (60°)12.7 mphScattered Clouds
7:53 AM80.6 °F75.2 °F84 %29.89 in10.0 miENE (70°)12.7 mphMostly Cloudy
7:58 AM80.6 °F75.2 °F84 %29.87 in10.0 miENE (60°)13.8 mphScattered Clouds
8:23 AM82.4 °F77.0 °F84 %29.91 in10.0 miENE (60°)12.7 mphMostly Cloudy
8:28 AM80.6 °F77.0 °F89 %29.91 in10.0 miENE (70°)15.0 mphMostly Cloudy
8:33 AM80.6 °F75.2 °F84 %29.91 in10.0 miENE (70°)13.8 mphMostly Cloudy
8:38 AM80.6 °F75.2 °F84 %29.91 in10.0 miENE (60°)13.8 mphScattered Clouds
8:58 AM81.7 °F76.1 °F83 %29.89 in10.0 miNE (50°)13.8 mphPartly Cloudy
9:38 AM82.4 °F77.0 °F84 %29.92 in10.0 miENE (60°)15.0 mphMostly Cloudy
9:43 AM82.4 °F77.0 °F84 %29.92 in10.0 miENE (60°)15.0 mphScattered Clouds
9:58 AM83.1 °F76.6 °F81 %29.89 in10.0 miNE (50°)12.7 mphScattered Clouds
10:08 AM82.4 °F77.0 °F84 %29.92 in10.0 miENE (60°)15.0 mphMostly Cloudy
10:13 AM82.4 °F77.0 °F84 %29.92 in10.0 miENE (70°)15.0 mphMostly Cloudy
10:18 AM82.4 °F77.0 °F84 %29.91 in10.0 miENE (60°)15.0 mphMostly Cloudy
10:23 AM82.4 °F77.0 °F84 %29.91 in10.0 miNE (50°)13.8 mphMostly Cloudy
10:33 AM84.2 °F77.0 °F79 %29.91 in10.0 miENE (60°)13.8 mphMostly Cloudy
10:43 AM82.4 °F77.0 °F84 %29.90 in10.0 miENE (60°)15.0 mphScattered Clouds
10:58 AM83.8 °F76.6 °F79 %29.86 in10.0 miENE (60°)17.3 mphScattered Clouds
11:18 AM84.2 °F77.0 °F79 %29.89 in10.0 miENE (60°)13.8 mphMostly Cloudy
11:28 AM84.2 °F77.0 °F79 %29.89 in10.0 miENE (70°)16.1 mphScattered Clouds
11:53 AM84.2 °F77.0 °F79 %29.88 in10.0 miENE (70°)13.8 mphMostly Cloudy
11:58 AM84.0 °F76.8 °F79 %29.86 in10.0 miENE (60°)15.0 mphMostly Cloudy
12:03 PM84.2 °F77.0 °F79 %29.87 in10.0 miEast (80°)15.0 mphScattered Clouds
12:13 PM84.2 °F77.0 °F79 %29.87 in10.0 miENE (60°)16.1 mphScattered Clouds
12:58 PM84.4 °F77.0 °F78 %29.82 in10.0 miENE (70°)15.0 mphPartly Cloudy
1:48 PM84.2 °F77.0 °F79 %29.84 in10.0 miENE (60°)15.0 mphMostly Cloudy
1:53 PM84.2 °F77.0 °F79 %29.84 in10.0 miENE (60°)12.7 mphMostly Cloudy
1:58 PM84.0 °F75.9 °F76 %29.81 in10.0 miENE (60°)13.8 mphMostly Cloudy
2:03 PM84.2 °F77.0 °F79 %29.84 in10.0 miEast (80°)15.0 mphMostly Cloudy
2:08 PM84.2 °F77.0 °F79 %29.84 in10.0 miNE (50°)15.0 mphMostly Cloudy
2:13 PM84.2 °F77.0 °F79 %29.84 in10.0 miENE (60°)12.7 mphScattered Clouds
2:48 PM82.4 °F77.0 °F84 %29.82 in10.0 miEast (80°)12.7 mphMostly Cloudy
2:53 PM82.4 °F77.0 °F84 %29.82 in10.0 miENE (60°)13.8 mphScattered Clouds
2:58 PM82.6 °F76.6 °F82 %29.79 in10.0 miENE (60°)16.1 mphScattered Clouds
3:11 PM82.4 °F75.2 °F79 %29.82 in10.0 miEast (90°)16.1 mphLight Drizzle
3:20 PM82.4 °F75.2 °F79 %29.82 in10.0 miEast (80°)15.0 mphPartly Cloudy
3:58 PM82.2 °F75.4 °F80 %29.79 in10.0 miEast (80°)11.5 mph0.00 inClear
4:58 PM81.3 °F75.7 °F83 %29.81 in10.0 miEast (80°)11.5 mphClear
5:58 PM79.9 °F76.1 °F88 %29.81 in10.0 miEast (90°)13.8 mphScattered Clouds
6:38 PM80.6 °F77.0 °F89 %29.84 in10.0 miEast (80°)10.4 mphMostly Cloudy
6:48 PM80.6 °F75.2 °F84 %29.85 in10.0 miEast (90°)12.7 mphScattered Clouds
6:58 PM79.7 °F76.1 °F89 %29.82 in10.0 miEast (80°)10.4 mphScattered Clouds
7:03 PM80.6 °F77.0 °F89 %29.86 in10.0 miEast (80°)15.0 mphMostly Cloudy
7:23 PM80.6 °F75.2 °F84 %29.87 in10.0 miENE (70°)12.7 mphMostly Cloudy
7:33 PM78.8 °F75.2 °F89 %29.87 in10.0 miENE (70°)11.5 mphMostly Cloudy
7:38 PM78.8 °F75.2 °F89 %29.87 in10.0 miENE (70°)10.4 mphScattered Clouds
7:58 PM79.3 °F75.9 °F89 %29.84 in10.0 miEast (80°)11.5 mphPartly Cloudy
8:58 PM79.2 °F75.2 °F88 %29.86 in10.0 miENE (70°)12.7 mphScattered Clouds
9:03 PM78.8 °F75.2 °F89 %29.88 in10.0 miEast (80°)12.7 mphMostly Cloudy
9:13 PM78.8 °F75.2 °F89 %29.88 in10.0 miENE (70°)12.7 mphScattered Clouds
9:58 PM79.2 °F75.0 °F87 %29.86 in10.0 miENE (70°)11.5 mphScattered Clouds
10:08 PM78.8 °F75.2 °F89 %29.88 in10.0 miENE (60°)11.5 mphMostly Cloudy
10:13 PM78.8 °F75.2 °F89 %29.88 in10.0 miENE (70°)12.7 mphMostly Cloudy
10:23 PM78.8 °F75.2 °F89 %29.88 in10.0 miENE (70°)12.7 mphScattered Clouds
10:58 PM78.6 °F74.7 °F88 %29.84 in10.0 miENE (70°)12.7 mphScattered Clouds
11:58 PM78.3 °F73.8 °F86 %29.83 in10.0 miENE (70°)10.4 mphClear
Hourly data recorded from PGUA, located miles away from Merizo, Guam







STORIES FROM OUR PARTNERS